Time,TemperatureF,DewpointF,PressureIn,WindDirection,WindDirectionDegrees,WindSpeedMPH,WindSpeedGustMPH,Humidity,HourlyPrecipIn,Conditions,Clouds,dailyrainin,SoftwareType,DateUTC
2013-06-14 00:00:00,39.0,33.6,30.23,SSW,192,0.0,2.0,81,0.00,,,0.00,meteohub,2013-06-14 07:00:00,
2013-06-14 00:05:00,39.0,33.6,30.23,SSW,192,0.0,2.0,81,0.00,,,0.00,meteohub,2013-06-14 07:05:00,
2013-06-14 00:10:00,38.8,33.4,30.23,SSW,193,0.0,2.0,81,0.00,,,0.00,meteohub,2013-06-14 07:10:00,
2013-06-14 00:15:00,38.8,33.4,30.23,SSW,193,0.0,2.0,81,0.00,,,0.00,meteohub,2013-06-14 07:15:00,
2013-06-14 00:20:00,38.7,33.3,30.23,South,186,0.0,5.0,81,0.00,,,0.00,meteohub,2013-06-14 07:20:00,
2013-06-14 00:25:00,38.7,33.3,30.23,South,191,0.0,5.0,81,0.00,,,0.00,meteohub,2013-06-14 07:25:00,
2013-06-14 00:30:00,38.7,33.6,30.23,South,174,0.0,5.0,82,0.00,,,0.00,meteohub,2013-06-14 07:30:00,
2013-06-14 00:35:00,38.5,33.4,30.23,South,181,0.0,3.0,82,0.00,,,0.00,meteohub,2013-06-14 07:35:00,
2013-06-14 00:40:00,38.5,33.4,30.23,South,182,0.0,3.0,82,0.00,,,0.00,meteohub,2013-06-14 07:40:00,
2013-06-14 00:46:00,38.3,33.3,30.23,South,182,0.0,2.0,82,0.00,,,0.00,meteohub,2013-06-14 07:46:00,
2013-06-14 00:51:00,38.3,33.3,30.23,South,184,0.0,2.0,82,0.00,,,0.00,meteohub,2013-06-14 07:51:00,
2013-06-14 00:56:00,38.3,33.3,30.23,South,185,1.0,3.0,82,0.00,,,0.00,meteohub,2013-06-14 07:56:00,
2013-06-14 01:01:00,38.3,33.6,30.23,South,182,2.0,4.0,83,0.00,,,0.00,meteohub,2013-06-14 08:01:00,
2013-06-14 01:06:00,38.3,33.6,30.23,South,182,0.0,4.0,83,0.00,,,0.00,meteohub,2013-06-14 08:06:00,
2013-06-14 01:11:00,38.3,33.6,30.23,South,182,0.0,4.0,83,0.00,,,0.00,meteohub,2013-06-14 08:11:00,
2013-06-14 01:16:00,38.1,33.4,30.22,SSW,197,0.0,2.0,83,0.00,,,0.00,meteohub,2013-06-14 08:16:00,
2013-06-14 01:21:00,38.1,33.4,30.22,SSW,196,0.0,5.0,83,0.00,,,0.00,meteohub,2013-06-14 08:21:00,
2013-06-14 01:26:00,37.9,33.3,30.22,SSW,196,0.0,5.0,83,0.00,,,0.00,meteohub,2013-06-14 08:26:00,
2013-06-14 01:31:00,37.8,33.1,30.22,SSW,197,0.0,5.0,83,0.00,,,0.00,meteohub,2013-06-14 08:31:00,
2013-06-14 01:36:00,37.6,32.9,30.22,SSW,197,0.0,3.0,83,0.00,,,0.00,meteohub,2013-06-14 08:36:00,
2013-06-14 01:41:00,37.4,32.7,30.22,SSW,198,0.0,2.0,83,0.00,,,0.00,meteohub,2013-06-14 08:41:00,
2013-06-14 01:46:00,37.2,32.5,30.22,SSW,198,0.0,2.0,83,0.00,,,0.00,meteohub,2013-06-14 08:46:00,
2013-06-14 01:51:00,37.0,32.7,30.22,SSW,198,0.0,2.0,84,0.00,,,0.00,meteohub,2013-06-14 08:51:00,
2013-06-14 01:56:00,36.9,32.2,30.22,SSW,198,0.0,2.0,83,0.00,,,0.00,meteohub,2013-06-14 08:56:00,
2013-06-14 02:01:00,36.5,31.8,30.22,SSW,198,0.0,0.0,83,0.00,,,0.00,meteohub,2013-06-14 09:01:00,
2013-06-14 02:07:00,36.1,31.5,30.22,SSW,198,0.0,0.0,83,0.00,,,0.00,meteohub,2013-06-14 09:07:00,
2013-06-14 02:12:00,35.8,31.5,30.22,SSW,198,0.0,0.0,84,0.00,,,0.00,meteohub,2013-06-14 09:12:00,
2013-06-14 02:17:00,35.6,31.3,30.22,SSW,198,0.0,0.0,84,0.00,,,0.00,meteohub,2013-06-14 09:17:00,
2013-06-14 02:22:00,35.4,31.1,30.22,SSW,198,0.0,0.0,84,0.00,,,0.00,meteohub,2013-06-14 09:22:00,
2013-06-14 02:27:00,35.2,30.9,30.22,SSW,198,0.0,0.0,84,0.00,,,0.00,meteohub,2013-06-14 09:27:00,
2013-06-14 02:32:00,35.1,30.7,30.21,SSW,198,0.0,0.0,84,0.00,,,0.00,meteohub,2013-06-14 09:32:00,
2013-06-14 02:37:00,34.7,30.4,30.21,SSW,198,0.0,0.0,84,0.00,,,0.00,meteohub,2013-06-14 09:37:00,
2013-06-14 02:42:00,34.5,30.2,30.21,SSW,198,0.0,0.0,84,0.00,,,0.00,meteohub,2013-06-14 09:42:00,
2013-06-14 02:47:00,34.2,30.2,30.21,SSW,198,0.0,0.0,85,0.00,,,0.00,meteohub,2013-06-14 09:47:00,
2013-06-14 02:52:00,34.0,30.0,30.21,SSW,198,0.0,0.0,85,0.00,,,0.00,meteohub,2013-06-14 09:52:00,
2013-06-14 02:57:00,33.8,29.8,30.21,SSW,198,0.0,0.0,85,0.00,,,0.00,meteohub,2013-06-14 09:57:00,
2013-06-14 03:02:00,33.6,29.7,30.21,SSW,198,0.0,0.0,85,0.00,,,0.00,meteohub,2013-06-14 10:02:00,
2013-06-14 03:07:00,33.3,29.3,30.21,SSW,198,0.0,0.0,85,0.00,,,0.00,meteohub,2013-06-14 10:07:00,
2013-06-14 03:12:00,33.1,29.1,30.21,SSW,198,0.0,0.0,85,0.00,,,0.00,meteohub,2013-06-14 10:12:00,
2013-06-14 03:17:00,32.7,28.8,30.21,SSW,198,0.0,0.0,85,0.00,,,0.00,meteohub,2013-06-14 10:17:00,
2013-06-14 03:22:00,32.4,28.4,30.21,SSW,198,0.0,0.0,85,0.00,,,0.00,meteohub,2013-06-14 10:22:00,
2013-06-14 03:27:00,32.0,27.7,30.21,SSW,198,0.0,0.0,84,0.00,,,0.00,meteohub,2013-06-14 10:27:00,
2013-06-14 03:32:00,31.5,27.1,30.20,SSW,198,0.0,0.0,84,0.00,,,0.00,meteohub,2013-06-14 10:32:00,
2013-06-14 03:37:00,31.1,27.1,30.20,SSW,198,0.0,0.0,85,0.00,,,0.00,meteohub,2013-06-14 10:37:00,
2013-06-14 03:42:00,30.9,27.0,30.20,SSW,198,0.0,0.0,85,0.00,,,0.00,meteohub,2013-06-14 10:42:00,
2013-06-14 03:47:00,30.6,26.8,30.19,SSW,198,0.0,0.0,86,0.00,,,0.00,meteohub,2013-06-14 10:47:00,
2013-06-14 03:52:00,30.6,26.8,30.19,SSW,198,0.0,0.0,86,0.00,,,0.00,meteohub,2013-06-14 10:52:00,
2013-06-14 03:57:00,30.4,27.0,30.19,SSW,198,0.0,0.0,87,0.00,,,0.00,meteohub,2013-06-14 10:57:00,
2013-06-14 04:02:00,30.2,26.8,30.19,SSW,198,0.0,0.0,87,0.00,,,0.00,meteohub,2013-06-14 11:02:00,
2013-06-14 04:07:00,30.2,26.8,30.19,SSW,198,0.0,0.0,87,0.00,,,0.00,meteohub,2013-06-14 11:07:00,
2013-06-14 04:12:00,30.2,26.8,30.19,SSW,198,0.0,0.0,87,0.00,,,0.00,meteohub,2013-06-14 11:12:00,
2013-06-14 04:17:00,30.0,26.6,30.19,SSW,198,0.0,0.0,87,0.00,,,0.00,meteohub,2013-06-14 11:17:00,
2013-06-14 04:22:00,30.0,26.6,30.19,SSW,198,0.0,0.0,87,0.00,,,0.00,meteohub,2013-06-14 11:22:00,
2013-06-14 04:27:00,29.8,26.4,30.19,SSW,198,0.0,0.0,87,0.00,,,0.00,meteohub,2013-06-14 11:27:00,
2013-06-14 04:32:00,29.7,26.2,30.20,SSW,198,0.0,0.0,87,0.00,,,0.00,meteohub,2013-06-14 11:32:00,
2013-06-14 04:37:00,29.5,25.9,30.20,SSW,198,0.0,0.0,86,0.00,,,0.00,meteohub,2013-06-14 11:37:00,
2013-06-14 04:42:00,29.1,25.7,30.20,SSW,198,0.0,0.0,87,0.00,,,0.00,meteohub,2013-06-14 11:42:00,
2013-06-14 04:47:00,28.9,25.5,30.20,SSW,198,0.0,0.0,87,0.00,,,0.00,meteohub,2013-06-14 11:47:00,
2013-06-14 04:52:00,28.8,25.3,30.20,SSW,198,0.0,0.0,87,0.00,,,0.00,meteohub,2013-06-14 11:52:00,
2013-06-14 04:57:00,28.6,25.2,30.20,SSW,198,0.0,0.0,87,0.00,,,0.00,meteohub,2013-06-14 11:57:00,
2013-06-14 05:02:00,28.6,25.2,30.20,SSW,198,0.0,0.0,87,0.00,,,0.00,meteohub,2013-06-14 12:02:00,
2013-06-14 05:07:00,28.6,25.2,30.20,SSW,198,0.0,0.0,87,0.00,,,0.00,meteohub,2013-06-14 12:07:00,
2013-06-14 05:12:00,28.4,25.0,30.20,SSW,198,0.0,0.0,87,0.00,,,0.00,meteohub,2013-06-14 12:12:00,
2013-06-14 05:17:00,28.2,24.8,30.20,SSW,198,0.0,0.0,87,0.00,,,0.00,meteohub,2013-06-14 12:17:00,
2013-06-14 05:22:00,28.2,24.8,30.20,SSW,198,0.0,0.0,87,0.00,,,0.00,meteohub,2013-06-14 12:22:00,
2013-06-14 05:27:00,28.2,25.2,30.20,SSW,198,0.0,0.0,88,0.00,,,0.00,meteohub,2013-06-14 12:27:00,
2013-06-14 05:32:00,28.2,25.2,30.20,SSW,198,0.0,0.0,88,0.00,,,0.00,meteohub,2013-06-14 12:32:00,
2013-06-14 05:37:00,28.2,25.2,30.20,SSW,198,0.0,0.0,88,0.00,,,0.00,meteohub,2013-06-14 12:37:00,
2013-06-14 05:42:00,28.2,25.2,30.20,SSW,198,0.0,0.0,88,0.00,,,0.00,meteohub,2013-06-14 12:42:00,
2013-06-14 05:47:00,28.2,25.2,30.20,SSW,198,0.0,0.0,88,0.00,,,0.00,meteohub,2013-06-14 12:47:00,
2013-06-14 05:52:00,28.2,25.2,30.20,SSW,198,0.0,0.0,88,0.00,,,0.00,meteohub,2013-06-14 12:52:00,
2013-06-14 05:57:00,28.4,25.5,30.20,SSW,198,0.0,0.0,89,0.00,,,0.00,meteohub,2013-06-14 12:57:00,
2013-06-14 06:02:00,28.6,25.7,30.20,SSW,198,0.0,1.0,89,0.00,,,0.00,meteohub,2013-06-14 13:02:00,
2013-06-14 06:07:00,28.6,25.7,30.20,SSW,198,0.0,2.0,89,0.00,,,0.00,meteohub,2013-06-14 13:07:00,
2013-06-14 06:12:00,28.8,25.9,30.20,SSW,198,0.0,2.0,89,0.00,,,0.00,meteohub,2013-06-14 13:12:00,
2013-06-14 06:17:00,28.8,25.9,30.21,SSW,198,0.0,1.0,89,0.00,,,0.00,meteohub,2013-06-14 13:17:00,
2013-06-14 06:22:00,28.9,26.1,30.21,SSW,198,0.0,1.0,89,0.00,,,0.00,meteohub,2013-06-14 13:22:00,
2013-06-14 06:27:00,29.1,26.2,30.21,SSW,198,0.0,1.0,89,0.00,,,0.00,meteohub,2013-06-14 13:27:00,
2013-06-14 06:32:00,29.5,26.6,30.21,SSW,198,0.0,0.0,89,0.00,,,0.00,meteohub,2013-06-14 13:32:00,
2013-06-14 06:37:00,29.7,26.8,30.21,SSW,198,0.0,0.0,89,0.00,,,0.00,meteohub,2013-06-14 13:37:00,
2013-06-14 06:42:00,29.7,26.8,30.21,SSW,198,0.0,1.0,89,0.00,,,0.00,meteohub,2013-06-14 13:42:00,
2013-06-14 06:47:00,30.0,27.1,30.21,SSW,198,0.0,1.0,89,0.00,,,0.00,meteohub,2013-06-14 13:47:00,
2013-06-14 06:52:00,30.2,27.7,30.21,SSW,198,0.0,1.0,90,0.00,,,0.00,meteohub,2013-06-14 13:52:00,
2013-06-14 06:57:00,30.6,28.0,30.21,SSW,198,0.0,1.0,90,0.00,,,0.00,meteohub,2013-06-14 13:57:00,
2013-06-14 07:02:00,30.7,28.2,30.21,SSW,196,0.0,1.0,90,0.00,,,0.00,meteohub,2013-06-14 14:02:00,
2013-06-14 07:07:00,31.1,28.6,30.21,SSW,196,0.0,1.0,90,0.00,,,0.00,meteohub,2013-06-14 14:07:00,
2013-06-14 07:12:00,31.3,28.8,30.21,SSW,196,0.0,1.0,90,0.00,,,0.00,meteohub,2013-06-14 14:12:00,
2013-06-14 07:17:00,31.8,29.3,30.21,SSW,196,0.0,1.0,90,0.00,,,0.00,meteohub,2013-06-14 14:17:00,
2013-06-14 07:22:00,32.2,29.7,30.21,SSW,196,1.0,1.0,90,0.00,,,0.00,meteohub,2013-06-14 14:22:00,
2013-06-14 07:27:00,32.7,30.0,30.21,SSW,196,0.0,2.0,90,0.00,,,0.00,meteohub,2013-06-14 14:27:00,
2013-06-14 07:32:00,33.3,30.6,30.21,WSW,243,0.0,2.0,90,0.00,,,0.00,meteohub,2013-06-14 14:32:00,
2013-06-14 07:37:00,34.0,31.3,30.21,WSW,246,0.0,3.0,90,0.00,,,0.00,meteohub,2013-06-14 14:37:00,
2013-06-14 07:42:00,34.7,32.0,30.21,WSW,239,0.0,3.0,90,0.00,,,0.00,meteohub,2013-06-14 14:42:00,
2013-06-14 07:47:00,35.4,32.7,30.20,South,186,0.0,4.0,90,0.00,,,0.00,meteohub,2013-06-14 14:47:00,
2013-06-14 07:52:00,36.1,33.3,30.20,WSW,246,0.0,4.0,89,0.00,,,0.00,meteohub,2013-06-14 14:52:00,
2013-06-14 07:57:00,36.9,34.0,30.20,SW,221,0.0,4.0,89,0.00,,,0.00,meteohub,2013-06-14 14:57:00,
2013-06-14 08:02:00,37.9,34.3,30.21,SSW,196,0.0,4.0,87,0.00,,,0.00,meteohub,2013-06-14 15:02:00,
2013-06-14 08:07:00,38.7,34.9,30.21,South,174,0.0,5.0,86,0.00,,,0.00,meteohub,2013-06-14 15:07:00,
2013-06-14 08:12:00,39.6,35.1,30.21,SSW,212,0.0,5.0,84,0.00,,,0.00,meteohub,2013-06-14 15:12:00,
2013-06-14 08:17:00,40.6,36.0,30.20,SSW,212,0.0,4.0,83,0.00,,,0.00,meteohub,2013-06-14 15:17:00,
2013-06-14 08:22:00,41.9,36.5,30.20,SW,215,0.0,4.0,81,0.00,,,0.00,meteohub,2013-06-14 15:22:00,
2013-06-14 08:27:00,43.0,36.5,30.20,South,186,0.0,4.0,78,0.00,,,0.00,meteohub,2013-06-14 15:27:00,
2013-06-14 08:32:00,44.1,36.7,30.19,South,187,0.0,4.0,75,0.00,,,0.00,meteohub,2013-06-14 15:32:00,
2013-06-14 08:37:00,45.0,36.5,30.19,South,189,0.0,4.0,72,0.00,,,0.00,meteohub,2013-06-14 15:37:00,
2013-06-14 08:42:00,45.9,36.7,30.19,SSW,195,0.0,4.0,70,0.00,,,0.00,meteohub,2013-06-14 15:42:00,
2013-06-14 08:47:00,46.6,36.5,30.19,SW,231,0.0,4.0,68,0.00,,,0.00,meteohub,2013-06-14 15:47:00,
2013-06-14 08:52:00,47.1,36.3,30.19,SW,221,3.0,4.0,66,0.00,,,0.00,meteohub,2013-06-14 15:52:00,
2013-06-14 08:57:00,47.7,36.9,30.19,South,174,0.0,6.0,66,0.00,,,0.00,meteohub,2013-06-14 15:57:00,
2013-06-14 09:02:00,48.4,36.7,30.19,West,260,0.0,6.0,64,0.00,,,0.00,meteohub,2013-06-14 16:02:00,
2013-06-14 09:07:00,48.6,36.1,30.19,ESE,121,0.0,6.0,62,0.00,,,0.00,meteohub,2013-06-14 16:07:00,
2013-06-14 09:12:00,49.1,36.7,30.19,SSW,195,4.0,7.0,62,0.00,,,0.00,meteohub,2013-06-14 16:12:00,
2013-06-14 09:17:00,49.6,36.7,30.19,SSE,167,0.0,7.0,61,0.00,,,0.00,meteohub,2013-06-14 16:17:00,
2013-06-14 09:22:00,50.7,36.9,30.19,South,178,0.0,5.0,59,0.00,,,0.00,meteohub,2013-06-14 16:22:00,
2013-06-14 09:27:00,51.3,35.6,30.19,South,186,1.0,5.0,55,0.00,,,0.00,meteohub,2013-06-14 16:27:00,
2013-06-14 09:32:00,51.8,36.5,30.19,South,186,0.0,5.0,56,0.00,,,0.00,meteohub,2013-06-14 16:32:00,
2013-06-14 09:37:00,52.3,37.0,30.19,WSW,246,0.0,5.0,56,0.00,,,0.00,meteohub,2013-06-14 16:37:00,
2013-06-14 09:42:00,53.2,36.5,30.19,WSW,248,0.0,4.0,53,0.00,,,0.00,meteohub,2013-06-14 16:42:00,
2013-06-14 09:47:00,53.6,37.8,30.18,WSW,248,0.0,1.0,55,0.00,,,0.00,meteohub,2013-06-14 16:47:00,
2013-06-14 09:52:00,54.1,37.4,30.18,SSW,194,0.0,1.0,53,0.00,,,0.00,meteohub,2013-06-14 16:52:00,
2013-06-14 09:57:00,54.9,37.6,30.18,South,171,0.0,6.0,52,0.00,,,0.00,meteohub,2013-06-14 16:57:00,
2013-06-14 10:02:00,55.6,37.2,30.17,South,190,0.0,6.0,50,0.00,,,0.00,meteohub,2013-06-14 17:02:00,
2013-06-14 10:07:00,56.1,37.2,30.17,South,190,0.0,2.0,49,0.00,,,0.00,meteohub,2013-06-14 17:07:00,
2013-06-14 10:12:00,56.8,37.4,30.17,SSW,192,1.0,4.0,48,0.00,,,0.00,meteohub,2013-06-14 17:12:00,
2013-06-14 10:17:00,57.7,37.0,30.17,South,175,1.0,4.0,46,0.00,,,0.00,meteohub,2013-06-14 17:17:00,
2013-06-14 10:22:00,58.5,37.2,30.17,WSW,242,0.0,4.0,45,0.00,,,0.00,meteohub,2013-06-14 17:22:00,
2013-06-14 10:27:00,58.6,36.7,30.17,WSW,245,0.0,3.0,44,0.00,,,0.00,meteohub,2013-06-14 17:27:00,
2013-06-14 10:32:00,58.8,35.8,30.16,SSW,211,0.0,3.0,42,0.00,,,0.00,meteohub,2013-06-14 17:32:00,
2013-06-14 10:37:00,59.2,36.7,30.16,South,184,0.0,1.0,43,0.00,,,0.00,meteohub,2013-06-14 17:37:00,
2013-06-14 10:42:00,59.9,34.9,30.16,South,180,0.0,5.0,39,0.00,,,0.00,meteohub,2013-06-14 17:42:00,
2013-06-14 10:47:00,59.7,37.2,30.16,NW,315,0.0,5.0,43,0.00,,,0.00,meteohub,2013-06-14 17:47:00,
2013-06-14 10:52:00,59.7,36.5,30.16,North,355,0.0,5.0,42,0.00,,,0.00,meteohub,2013-06-14 17:52:00,
2013-06-14 10:57:00,59.9,37.4,30.16,SW,225,0.0,5.0,43,0.00,,,0.00,meteohub,2013-06-14 17:57:00,
2013-06-14 11:02:00,60.3,35.2,30.15,NW,313,0.0,5.0,39,0.00,,,0.00,meteohub,2013-06-14 18:02:00,
2013-06-14 11:07:00,59.9,35.4,30.15,NW,316,0.0,5.0,40,0.00,,,0.00,meteohub,2013-06-14 18:07:00,
2013-06-14 11:12:00,60.3,35.8,30.15,NW,315,0.0,5.0,40,0.00,,,0.00,meteohub,2013-06-14 18:12:00,
2013-06-14 11:17:00,60.6,33.4,30.14,NNW,342,0.0,5.0,36,0.00,,,0.00,meteohub,2013-06-14 18:17:00,
2013-06-14 11:22:00,60.8,33.6,30.14,ENE,59,0.0,4.0,36,0.00,,,0.00,meteohub,2013-06-14 18:22:00,
2013-06-14 11:27:00,60.8,32.2,30.14,NW,315,0.0,5.0,34,0.00,,,0.00,meteohub,2013-06-14 18:27:00,
2013-06-14 11:32:00,61.0,33.1,30.14,SW,227,1.0,5.0,35,0.00,,,0.00,meteohub,2013-06-14 18:32:00,
2013-06-14 11:37:00,61.5,34.3,30.14,NW,324,1.0,5.0,36,0.00,,,0.00,meteohub,2013-06-14 18:37:00,
2013-06-14 11:42:00,61.5,34.3,30.14,SSW,211,0.0,4.0,36,0.00,,,0.00,meteohub,2013-06-14 18:42:00,
2013-06-14 11:47:00,62.4,35.8,30.14,NW,314,0.0,5.0,37,0.00,,,0.00,meteohub,2013-06-14 18:47:00,
2013-06-14 11:53:00,63.3,35.8,30.14,WNW,292,3.0,6.0,36,0.00,,,0.00,meteohub,2013-06-14 18:53:00,
2013-06-14 11:58:00,63.9,36.3,30.14,WNW,286,0.0,6.0,36,0.00,,,0.00,meteohub,2013-06-14 18:58:00,
2013-06-14 12:03:00,64.6,36.3,30.13,South,188,0.0,6.0,35,0.00,,,0.00,meteohub,2013-06-14 19:03:00,
2013-06-14 12:08:00,64.9,37.2,30.13,South,188,0.0,5.0,36,0.00,,,0.00,meteohub,2013-06-14 19:08:00,
2013-06-14 12:13:00,64.4,36.1,30.13,East,80,1.0,5.0,35,0.00,,,0.00,meteohub,2013-06-14 19:13:00,
2013-06-14 12:18:00,64.9,35.8,30.12,East,82,0.0,5.0,34,0.00,,,0.00,meteohub,2013-06-14 19:18:00,
2013-06-14 12:23:00,65.7,37.2,30.12,ESE,107,1.0,4.0,35,0.00,,,0.00,meteohub,2013-06-14 19:23:00,
2013-06-14 12:28:00,65.8,36.7,30.12,WSW,250,0.0,4.0,34,0.00,,,0.00,meteohub,2013-06-14 19:28:00,
2013-06-14 12:33:00,65.8,36.0,30.12,WSW,256,1.0,6.0,33,0.00,,,0.00,meteohub,2013-06-14 19:33:00,
2013-06-14 12:38:00,65.7,37.2,30.12,WSW,237,0.0,7.0,35,0.00,,,0.00,meteohub,2013-06-14 19:38:00,
2013-06-14 12:43:00,66.2,36.1,30.12,South,184,0.0,7.0,33,0.00,,,0.00,meteohub,2013-06-14 19:43:00,
2013-06-14 12:48:00,66.2,36.1,30.12,WSW,242,0.0,7.0,33,0.00,,,0.00,meteohub,2013-06-14 19:48:00,
2013-06-14 12:53:00,66.0,36.9,30.12,NW,319,2.0,4.0,34,0.00,,,0.00,meteohub,2013-06-14 19:53:00,
2013-06-14 12:58:00,66.0,37.6,30.12,NW,317,0.0,4.0,35,0.00,,,0.00,meteohub,2013-06-14 19:58:00,
2013-06-14 13:03:00,66.0,36.0,30.11,NW,321,0.0,3.0,33,0.00,,,0.00,meteohub,2013-06-14 20:03:00,
2013-06-14 13:08:00,65.3,36.9,30.11,NW,314,2.0,3.0,35,0.00,,,0.00,meteohub,2013-06-14 20:08:00,
2013-06-14 13:14:00,65.7,35.8,30.11,NNW,340,2.0,5.0,33,0.00,,,0.00,meteohub,2013-06-14 20:14:00,
2013-06-14 13:19:00,66.7,36.7,30.09,West,279,1.0,5.0,33,0.00,,,0.00,meteohub,2013-06-14 20:19:00,
2013-06-14 13:24:00,68.0,38.5,30.09,SW,223,2.0,7.0,34,0.00,,,0.00,meteohub,2013-06-14 20:24:00,
2013-06-14 13:29:00,68.7,38.5,30.09,NW,321,0.0,7.0,33,0.00,,,0.00,meteohub,2013-06-14 20:29:00,
2013-06-14 13:34:00,68.9,37.8,30.09,WSW,257,0.0,7.0,32,0.00,,,0.00,meteohub,2013-06-14 20:34:00,
2013-06-14 13:39:00,68.9,36.1,30.09,North,11,1.0,6.0,30,0.00,,,0.00,meteohub,2013-06-14 20:39:00,
2013-06-14 13:44:00,68.4,38.1,30.09,NE,54,0.0,6.0,33,0.00,,,0.00,meteohub,2013-06-14 20:44:00,
2013-06-14 13:49:00,68.4,38.1,30.09,NNW,331,0.0,6.0,33,0.00,,,0.00,meteohub,2013-06-14 20:49:00,
2013-06-14 13:54:00,68.9,37.8,30.09,NW,309,1.0,4.0,32,0.00,,,0.00,meteohub,2013-06-14 20:54:00,
2013-06-14 13:59:00,69.4,36.7,30.08,NW,318,2.0,3.0,30,0.00,,,0.00,meteohub,2013-06-14 20:59:00,
2013-06-14 14:04:00,69.6,37.6,30.08,NNW,331,0.0,6.0,31,0.00,,,0.00,meteohub,2013-06-14 21:04:00,
2013-06-14 14:09:00,69.4,38.3,30.08,West,259,0.0,6.0,32,0.00,,,0.00,meteohub,2013-06-14 21:09:00,
2013-06-14 14:14:00,68.9,37.0,30.07,NW,319,0.0,6.0,31,0.00,,,0.00,meteohub,2013-06-14 21:14:00,
2013-06-14 14:19:00,68.9,37.8,30.07,SSW,197,0.0,4.0,32,0.00,,,0.00,meteohub,2013-06-14 21:19:00,
2013-06-14 14:24:00,69.3,36.5,30.07,NNW,328,0.0,6.0,30,0.00,,,0.00,meteohub,2013-06-14 21:24:00,
2013-06-14 14:29:00,68.7,37.6,30.06,SSW,198,0.0,6.0,32,0.00,,,0.00,meteohub,2013-06-14 21:29:00,
2013-06-14 14:35:00,69.1,37.0,30.06,South,177,0.0,6.0,31,0.00,,,0.00,meteohub,2013-06-14 21:35:00,
2013-06-14 14:40:00,68.5,36.7,30.06,ESE,102,0.0,6.0,31,0.00,,,0.00,meteohub,2013-06-14 21:40:00,
2013-06-14 14:45:00,68.2,36.3,30.05,NNW,339,0.0,6.0,31,0.00,,,0.00,meteohub,2013-06-14 21:45:00,
2013-06-14 14:50:00,68.7,37.6,30.05,NNE,16,0.0,3.0,32,0.00,,,0.00,meteohub,2013-06-14 21:50:00,
2013-06-14 14:55:00,69.6,37.6,30.05,NW,326,3.0,3.0,31,0.00,,,0.00,meteohub,2013-06-14 21:55:00,
2013-06-14 15:00:00,70.3,37.4,30.04,NW,313,4.0,8.0,30,0.00,,,0.00,meteohub,2013-06-14 22:00:00,
2013-06-14 15:05:00,70.5,38.3,30.04,WNW,300,0.0,8.0,31,0.00,,,0.00,meteohub,2013-06-14 22:05:00,
2013-06-14 15:10:00,70.3,37.4,30.04,North,11,3.0,4.0,30,0.00,,,0.00,meteohub,2013-06-14 22:10:00,
2013-06-14 15:15:00,70.7,37.8,30.04,North,5,1.0,4.0,30,0.00,,,0.00,meteohub,2013-06-14 22:15:00,
2013-06-14 15:20:00,70.9,37.0,30.04,NW,320,1.0,4.0,29,0.00,,,0.00,meteohub,2013-06-14 22:20:00,
2013-06-14 15:25:00,70.2,35.4,30.04,NNE,15,1.0,6.0,28,0.00,,,0.00,meteohub,2013-06-14 22:25:00,
2013-06-14 15:30:00,69.6,36.7,30.04,NW,307,1.0,7.0,30,0.00,,,0.00,meteohub,2013-06-14 22:30:00,
2013-06-14 15:35:00,69.6,36.7,30.04,NW,317,3.0,7.0,30,0.00,,,0.00,meteohub,2013-06-14 22:35:00,
2013-06-14 15:40:00,70.0,36.1,30.04,NW,318,2.0,11.0,29,0.00,,,0.00,meteohub,2013-06-14 22:40:00,
2013-06-14 15:45:00,70.3,36.5,30.03,NW,318,0.0,11.0,29,0.00,,,0.00,meteohub,2013-06-14 22:45:00,
2013-06-14 15:50:00,70.0,35.2,30.03,NNE,22,3.0,9.0,28,0.00,,,0.00,meteohub,2013-06-14 22:50:00,
2013-06-14 15:56:00,69.4,35.8,30.03,NNE,13,0.0,9.0,29,0.00,,,0.00,meteohub,2013-06-14 22:56:00,
2013-06-14 16:01:00,68.7,35.1,30.03,ESE,110,0.0,6.0,29,0.00,,,0.00,meteohub,2013-06-14 23:01:00,
2013-06-14 16:06:00,69.1,36.3,30.03,North,0,0.0,8.0,30,0.00,,,0.00,meteohub,2013-06-14 23:06:00,
2013-06-14 16:11:00,69.3,35.6,30.03,North,9,0.0,8.0,29,0.00,,,0.00,meteohub,2013-06-14 23:11:00,
2013-06-14 16:16:00,69.4,35.8,30.02,NNW,331,0.0,5.0,29,0.00,,,0.00,meteohub,2013-06-14 23:16:00,
2013-06-14 16:21:00,69.8,36.1,30.02,NNE,24,0.0,5.0,29,0.00,,,0.00,meteohub,2013-06-14 23:21:00,
2013-06-14 16:26:00,70.3,36.5,30.02,NW,309,0.0,5.0,29,0.00,,,0.00,meteohub,2013-06-14 23:26:00,
2013-06-14 16:31:00,70.5,37.6,30.02,SSE,156,1.0,5.0,30,0.00,,,0.00,meteohub,2013-06-14 23:31:00,
2013-06-14 16:36:00,71.4,36.5,30.02,ENE,66,0.0,4.0,28,0.00,,,0.00,meteohub,2013-06-14 23:36:00,
2013-06-14 16:41:00,71.1,36.3,30.02,SSE,150,0.0,4.0,28,0.00,,,0.00,meteohub,2013-06-14 23:41:00,
2013-06-14 16:46:00,70.9,37.9,30.01,NNE,15,2.0,2.0,30,0.00,,,0.00,meteohub,2013-06-14 23:46:00,
2013-06-14 16:51:00,70.9,37.0,30.01,NE,35,2.0,4.0,29,0.00,,,0.00,meteohub,2013-06-14 23:51:00,
2013-06-14 16:56:00,70.7,36.0,30.01,ENE,73,0.0,5.0,28,0.00,,,0.00,meteohub,2013-06-14 23:56:00,
2013-06-14 17:01:00,70.0,36.1,30.00,East,84,0.0,6.0,29,0.00,,,0.00,meteohub,2013-06-15 00:01:00,
2013-06-14 17:06:00,69.3,35.6,30.00,NNE,25,2.0,6.0,29,0.00,,,0.00,meteohub,2013-06-15 00:06:00,
2013-06-14 17:12:00,69.3,35.6,30.00,ENE,77,0.0,7.0,29,0.00,,,0.00,meteohub,2013-06-15 00:12:00,
2013-06-14 17:17:00,69.1,36.3,30.00,South,181,1.0,7.0,30,0.00,,,0.00,meteohub,2013-06-15 00:17:00,
2013-06-14 17:22:00,69.4,36.7,30.00,East,92,1.0,7.0,30,0.00,,,0.00,meteohub,2013-06-15 00:22:00,
2013-06-14 17:27:00,69.8,35.2,30.00,NNE,19,0.0,6.0,28,0.00,,,0.00,meteohub,2013-06-15 00:27:00,
2013-06-14 17:32:00,69.8,35.2,30.00,NE,44,0.0,3.0,28,0.00,,,0.00,meteohub,2013-06-15 00:32:00,
2013-06-14 17:37:00,70.0,36.1,30.00,NE,46,3.0,5.0,29,0.00,,,0.00,meteohub,2013-06-15 00:37:00,
2013-06-14 17:42:00,69.4,35.8,30.00,ENE,71,0.0,5.0,29,0.00,,,0.00,meteohub,2013-06-15 00:42:00,
2013-06-14 17:47:00,69.3,36.5,29.99,ENE,68,0.0,6.0,30,0.00,,,0.00,meteohub,2013-06-15 00:47:00,
2013-06-14 17:52:00,69.6,36.7,29.99,NNE,20,0.0,6.0,30,0.00,,,0.00,meteohub,2013-06-15 00:52:00,
2013-06-14 17:57:00,69.6,36.0,29.99,ENE,59,2.0,4.0,29,0.00,,,0.00,meteohub,2013-06-15 00:57:00,
2013-06-14 18:02:00,69.8,36.9,29.98,NE,51,0.0,4.0,30,0.00,,,0.00,meteohub,2013-06-15 01:02:00,
2013-06-14 18:07:00,69.1,35.4,29.98,NE,51,0.0,4.0,29,0.00,,,0.00,meteohub,2013-06-15 01:07:00,
2013-06-14 18:12:00,68.7,36.0,29.98,ENE,59,0.0,4.0,30,0.00,,,0.00,meteohub,2013-06-15 01:12:00,
2013-06-14 18:17:00,68.4,34.9,29.98,NNE,18,1.0,4.0,29,0.00,,,0.00,meteohub,2013-06-15 01:17:00,
2013-06-14 18:22:00,68.5,35.8,29.98,NE,49,0.0,4.0,30,0.00,,,0.00,meteohub,2013-06-15 01:22:00,
2013-06-14 18:27:00,68.5,35.8,29.98,North,11,3.0,4.0,30,0.00,,,0.00,meteohub,2013-06-15 01:27:00,
2013-06-14 18:32:00,68.7,35.1,29.97,NNE,18,3.0,5.0,29,0.00,,,0.00,meteohub,2013-06-15 01:32:00,
2013-06-14 18:37:00,68.4,35.6,29.97,NNE,18,0.0,6.0,30,0.00,,,0.00,meteohub,2013-06-15 01:37:00,
2013-06-14 18:42:00,68.2,35.6,29.97,NNE,30,5.0,6.0,30,0.00,,,0.00,meteohub,2013-06-15 01:42:00,
2013-06-14 18:47:00,67.5,34.9,29.97,North,10,0.0,9.0,30,0.00,,,0.00,meteohub,2013-06-15 01:47:00,
2013-06-14 18:52:00,67.3,34.7,29.97,NNW,346,1.0,9.0,30,0.00,,,0.00,meteohub,2013-06-15 01:52:00,
2013-06-14 18:57:00,67.3,34.7,29.97,NE,51,1.0,9.0,30,0.00,,,0.00,meteohub,2013-06-15 01:57:00,
2013-06-14 19:02:00,67.3,35.6,29.97,NW,307,2.0,5.0,31,0.00,,,0.00,meteohub,2013-06-15 02:02:00,
2013-06-14 19:07:00,67.1,34.5,29.97,NNW,335,0.0,5.0,30,0.00,,,0.00,meteohub,2013-06-15 02:07:00,
2013-06-14 19:12:00,66.6,34.9,29.97,North,355,0.0,4.0,31,0.00,,,0.00,meteohub,2013-06-15 02:12:00,
2013-06-14 19:17:00,66.2,35.4,29.96,North,11,0.0,3.0,32,0.00,,,0.00,meteohub,2013-06-15 02:17:00,
2013-06-14 19:22:00,65.7,34.9,29.96,ENE,68,0.0,3.0,32,0.00,,,0.00,meteohub,2013-06-15 02:22:00,
2013-06-14 19:27:00,65.3,33.1,29.96,NNE,25,0.0,3.0,30,0.00,,,0.00,meteohub,2013-06-15 02:27:00,
2013-06-14 19:32:00,64.9,34.3,29.96,NNE,27,0.0,5.0,32,0.00,,,0.00,meteohub,2013-06-15 02:32:00,
2013-06-14 19:37:00,64.6,33.3,29.96,North,351,4.0,5.0,31,0.00,,,0.00,meteohub,2013-06-15 02:37:00,
2013-06-14 19:42:00,64.2,33.6,29.96,NNE,28,0.0,6.0,32,0.00,,,0.00,meteohub,2013-06-15 02:42:00,
2013-06-14 19:47:00,63.7,33.3,29.96,NNE,21,1.0,6.0,32,0.00,,,0.00,meteohub,2013-06-15 02:47:00,
2013-06-14 19:52:00,63.5,33.1,29.96,NNE,30,0.0,6.0,32,0.00,,,0.00,meteohub,2013-06-15 02:52:00,
2013-06-14 19:57:00,63.3,33.6,29.96,NNE,30,0.0,6.0,33,0.00,,,0.00,meteohub,2013-06-15 02:57:00,
2013-06-14 20:02:00,63.0,33.4,29.96,NNE,30,0.0,6.0,33,0.00,,,0.00,meteohub,2013-06-15 03:02:00,
2013-06-14 20:07:00,62.6,33.8,29.96,NNE,30,0.0,2.0,34,0.00,,,0.00,meteohub,2013-06-15 03:07:00,
2013-06-14 20:12:00,62.4,34.3,29.96,NE,41,0.0,2.0,35,0.00,,,0.00,meteohub,2013-06-15 03:12:00,
2013-06-14 20:17:00,62.1,34.0,29.96,NE,41,0.0,4.0,35,0.00,,,0.00,meteohub,2013-06-15 03:17:00,
2013-06-14 20:22:00,61.9,33.8,29.96,NE,41,0.0,4.0,35,0.00,,,0.00,meteohub,2013-06-15 03:22:00,
2013-06-14 20:27:00,61.5,34.3,29.96,NE,41,0.0,4.0,36,0.00,,,0.00,meteohub,2013-06-15 03:27:00,
2013-06-14 20:32:00,61.2,33.3,29.96,NNE,30,0.0,2.0,35,0.00,,,0.00,meteohub,2013-06-15 03:32:00,
2013-06-14 20:37:00,60.8,34.3,29.96,NNE,28,0.0,4.0,37,0.00,,,0.00,meteohub,2013-06-15 03:37:00,
2013-06-14 20:42:00,60.3,35.2,29.96,NNE,28,0.0,4.0,39,0.00,,,0.00,meteohub,2013-06-15 03:42:00,
2013-06-14 20:47:00,59.7,34.7,29.96,NNE,28,0.0,4.0,39,0.00,,,0.00,meteohub,2013-06-15 03:47:00,
2013-06-14 20:52:00,59.2,33.6,29.96,NNE,28,0.0,1.0,38,0.00,,,0.00,meteohub,2013-06-15 03:52:00,
2013-06-14 20:57:00,58.6,33.8,29.96,NNE,27,0.0,2.0,39,0.00,,,0.00,meteohub,2013-06-15 03:57:00,
2013-06-14 21:01:00,58.5,34.2,29.96,NNE,27,1.0,3.0,40,0.00,,,0.00,meteohub,2013-06-15 04:01:00,
2013-06-14 21:02:00,58.5,34.2,29.96,NNE,27,0.0,3.0,40,0.00,,,0.00,meteohub,2013-06-15 04:02:00,
2013-06-14 21:04:00,58.1,33.3,29.96,NNE,27,0.0,3.0,39,0.00,,,0.00,meteohub,2013-06-15 04:04:00,
2013-06-14 21:09:00,57.7,33.6,29.96,NNE,27,0.0,3.0,40,0.00,,,0.00,meteohub,2013-06-15 04:09:00,
2013-06-14 21:14:00,57.4,33.3,29.96,NNE,27,1.0,3.0,40,0.00,,,0.00,meteohub,2013-06-15 04:14:00,
2013-06-14 21:19:00,57.0,33.4,29.96,NNE,27,0.0,2.0,41,0.00,,,0.00,meteohub,2013-06-15 04:19:00,
2013-06-14 21:24:00,56.5,33.1,29.96,NNE,27,0.0,2.0,41,0.00,,,0.00,meteohub,2013-06-15 04:24:00,
2013-06-14 21:29:00,56.3,32.9,29.96,NNE,27,0.0,2.0,41,0.00,,,0.00,meteohub,2013-06-15 04:29:00,
2013-06-14 21:34:00,55.8,32.9,29.96,NNE,27,0.0,2.0,42,0.00,,,0.00,meteohub,2013-06-15 04:34:00,
2013-06-14 21:39:00,55.4,33.3,29.96,NNE,27,0.0,2.0,43,0.00,,,0.00,meteohub,2013-06-15 04:39:00,
2013-06-14 21:45:00,54.9,32.7,29.96,NNE,27,0.0,1.0,43,0.00,,,0.00,meteohub,2013-06-15 04:45:00,
2013-06-14 21:50:00,54.3,32.9,29.96,NNE,19,0.0,0.0,44,0.00,,,0.00,meteohub,2013-06-15 04:50:00,
2013-06-14 21:55:00,53.6,32.7,29.96,NNE,19,0.0,2.0,45,0.00,,,0.00,meteohub,2013-06-15 04:55:00,
2013-06-14 22:00:00,52.7,32.5,29.96,NNE,19,0.0,2.0,46,0.00,,,0.00,meteohub,2013-06-15 05:00:00,
2013-06-14 22:05:00,52.2,32.5,29.96,NNE,19,0.0,2.0,47,0.00,,,0.00,meteohub,2013-06-15 05:05:00,
2013-06-14 22:10:00,51.8,31.6,29.96,NNE,19,0.0,3.0,46,0.00,,,0.00,meteohub,2013-06-15 05:10:00,
2013-06-14 22:15:00,51.4,32.4,29.96,North,9,0.0,4.0,48,0.00,,,0.00,meteohub,2013-06-15 05:15:00,
2013-06-14 22:20:00,51.1,32.0,29.96,North,9,0.0,4.0,48,0.00,,,0.00,meteohub,2013-06-15 05:20:00,
2013-06-14 22:25:00,50.5,32.0,29.96,North,9,0.0,4.0,49,0.00,,,0.00,meteohub,2013-06-15 05:25:00,
2013-06-14 22:30:00,50.2,31.6,29.96,North,9,0.0,2.0,49,0.00,,,0.00,meteohub,2013-06-15 05:30:00,
2013-06-14 22:35:00,49.8,31.5,29.96,North,9,0.0,1.0,49,0.00,,,0.00,meteohub,2013-06-15 05:35:00,
2013-06-14 22:40:00,49.3,31.5,29.96,North,9,0.0,1.0,50,0.00,,,0.00,meteohub,2013-06-15 05:40:00,
2013-06-14 22:45:00,48.9,31.6,29.96,North,9,0.0,1.0,51,0.00,,,0.00,meteohub,2013-06-15 05:45:00,
2013-06-14 22:50:00,48.6,31.6,29.96,North,9,0.0,1.0,52,0.00,,,0.00,meteohub,2013-06-15 05:50:00,
2013-06-14 22:55:00,48.4,31.5,29.96,North,9,0.0,1.0,52,0.00,,,0.00,meteohub,2013-06-15 05:55:00,
2013-06-14 23:01:00,47.8,32.0,29.96,North,9,0.0,0.0,54,0.00,,,0.00,meteohub,2013-06-15 06:01:00,
2013-06-14 23:06:00,47.3,32.0,29.96,North,9,0.0,0.0,55,0.00,,,0.00,meteohub,2013-06-15 06:06:00,
2013-06-14 23:11:00,46.8,31.8,29.96,North,9,0.0,1.0,56,0.00,,,0.00,meteohub,2013-06-15 06:11:00,
2013-06-14 23:16:00,46.6,31.6,29.96,North,9,0.0,1.0,56,0.00,,,0.00,meteohub,2013-06-15 06:16:00,
2013-06-14 23:21:00,46.4,31.5,29.96,North,9,0.0,1.0,56,0.00,,,0.00,meteohub,2013-06-15 06:21:00,
2013-06-14 23:26:00,46.2,31.3,29.96,North,9,0.0,1.0,56,0.00,,,0.00,meteohub,2013-06-15 06:26:00,
2013-06-14 23:31:00,46.0,31.6,29.96,North,9,0.0,1.0,57,0.00,,,0.00,meteohub,2013-06-15 06:31:00,
2013-06-14 23:36:00,45.9,31.1,29.96,North,9,0.0,0.0,56,0.00,,,0.00,meteohub,2013-06-15 06:36:00,
2013-06-14 23:41:00,45.5,31.1,29.96,North,9,0.0,1.0,57,0.00,,,0.00,meteohub,2013-06-15 06:41:00,
2013-06-14 23:46:00,45.0,31.1,29.95,North,9,0.0,1.0,58,0.00,,,0.00,meteohub,2013-06-15 06:46:00,
2013-06-14 23:51:00,44.6,30.7,29.95,North,9,0.0,1.0,58,0.00,,,0.00,meteohub,2013-06-15 06:51:00,
2013-06-14 23:56:00,44.1,30.2,29.95,North,9,0.0,1.0,58,0.00,,,0.00,meteohub,2013-06-15 06:56:00,